Regional Weather Roundup
Issued by NWS

Home | Current Version | Previous Version | Text Only | Print | Product List | Glossary Off
Versions: 1 2 3 4 5 6 7 8 9 10 11 12 13 14 15 16 17 18 19 20 21 22 23 24 25 26 27 28 29 30 31 32 33 34 35 36 37 38 39 40 41 42 43 44 45 46 47 48 49 50

629
ASUS43 KLMK 240202
RWRKY
KENTUCKY REGIONAL WEATHER ROUNDUP
NATIONAL WEATHER SERVICE LOUISVILLE KY
900 PM EST THU NOV 23 2017

NOTE "FAIR" INDICATES FEW OR NO CLOUDS BELOW 12,000 FEET
WITH NO SIGNIFICANT WEATHER AND/OR OBSTRUCTIONS TO VISIBILITY.

KYZ001>023-026-027-061>063-070>075-240300-
WESTERN AND SOUTH CENTRAL KENTUCKY

CITY           SKY/WX    TMP DP  RH WIND       PRES   REMARKS
PADUCAH        CLEAR     35  26  69 CALM      30.03R
HENDERSON      CLEAR     35  26  69 CALM      30.04S
OWENSBORO      CLEAR     39  25  57 CALM      30.04R
HOPKINSVILLE   CLEAR     40  24  53 CALM      30.03R
BOWLING GREEN  CLEAR     37  27  67 CALM      30.05R
GLASGOW        NOT AVBL
$$

KYZ024-025-028>034-038-045-046-053-240300-
NORTH CENTRAL KENTUCKY

CITY           SKY/WX    TMP DP  RH WIND       PRES   REMARKS
LOUISVILLE/SDF CLEAR     41  25  53 CALM      30.04R
LOUISVILLE/LOU CLEAR     37  27  67 CALM      30.05R
FORT KNOX      CLEAR     37  23  56 CALM      30.02R
$$

KYZ035>037-039>044-047>052-055>060-089>105-240300-
NORTHEAST KENTUCKY

CITY           SKY/WX    TMP DP  RH WIND       PRES   REMARKS
LEXINGTON      CLEAR     36  24  62 SE5       30.03S WCI  32
COVINGTON      CLEAR     36  25  64 S6        30.02S WCI  31
FRANKFORT      CLEAR     32  24  72 CALM      30.02S
$$

KYZ054-064>069-076>088-106>120-240300-
SOUTHEAST KENTUCKY

CITY           SKY/WX    TMP DP  RH WIND       PRES   REMARKS
JACKSON        CLEAR     41  18  39 E3        30.03R
LONDON         CLEAR     34  26  72 CALM      30.03S
SOMERSET       CLEAR     34  27  75 CALM      30.05S
MIDDLESBORO    CLEAR     33  30  87 CALM      30.05S
MONTICELLO     CLEAR     30  26  85 CALM      30.05F
$$





USA.gov is the U.S. government's official web portal to all federal, state and local government web resources and services.